CZ-4B R/B (43656 NORAD) Tracking and Keplerian Element Data

This shows tracking and keplerian element data for the satellite.

Feedback or suggestion? Click here.




ElementValue
Catalog43656
NameCZ-4B R/B
Epoch Orbit357
Epoch Day322.97523856
Epoch Year2018
RAAN330.5365
Inclination99.4525
Eccentricity0.0208453
Argument of Perigee296.1451
Mean Anonmoly61.8429
Mean Motion14.303971
Decay Rate-2E-08
L11 43656U 18081B 18322.97523856 -.00000002 00000-0 17966-4 0 9999
L22 43656 99.4525 330.5365 0208453 296.1451 61.8429 14.30397100 3578

Live tracking and technical data element details for CZ-4B R/B (NORAD 43656). CZ-4B R/B can be tracked NOW for your location showing map with azimuth and elevation plus other details from your city location.

Track the satellite on the map from your city or location and see movement details for azimuth, elevation, latitude, longitude, range, height, and movement on the map or in text.







IsCatalogInMostPopularTable: catalog: 43656, numindb: 8
Update: records affected: 1



GetName: 43656 CZ-4B R/B

Hit Count: updated at: Tue, 20 Nov 2018 12:12:25 GMT